This is the latest recevied weather packets stored in our database for station/object W4DHW-4. If no packets are shown the sender has not sent any weather packets the latest 10 day(s).
| Time | Temp. | Humidity | Pressure | Rain* | Wind** | Luminosity | Snow |
|---|---|---|---|---|---|---|---|
| 1778139274 | 16.67° C | 85% | 1011 hPa | 0 mm | - | 0 W/m² | - |
| 1778138971 | 16.67° C | 85% | 1010.9 hPa | 0 mm | - | 0 W/m² | - |
| 1778138668 | 16.67° C | 84% | 1011 hPa | 0 mm | - | 0 W/m² | - |
| 1778138366 | 16.67° C | 83% | 1011 hPa | 0 mm | - | 0 W/m² | - |
| 1778138062 | 16.67° C | 83% | 1011 hPa | 0 mm | - | 0 W/m² | - |
| 1778137759 | 17.22° C | 82% | 1011.4 hPa | 0 mm | - | 0 W/m² | - |
| 1778137457 | 17.22° C | 81% | 1011.1 hPa | 0 mm | - | 0 W/m² | - |
| 1778137153 | 17.22° C | 81% | 1010.9 hPa | 0 mm | - | 0 W/m² | - |
| 1778136850 | 17.78° C | 79% | 1011 hPa | 0 mm | - | 0 W/m² | - |
| 1778136547 | 17.78° C | 79% | 1010.8 hPa | 0 mm | - | 0 W/m² | - |
| 1778136245 | 17.78° C | 80% | 1010.6 hPa | 0 mm | - | 0 W/m² | - |
| 1778135942 | 17.78° C | 81% | 1010.7 hPa | 0 mm | - | 0 W/m² | - |
| 1778135640 | 17.78° C | 81% | 1010.9 hPa | 0 mm | - | 0 W/m² | - |
| 1778135336 | 17.78° C | 81% | 1011 hPa | 0 mm | - | 0 W/m² | - |
| 1778135033 | 17.78° C | 81% | 1011 hPa | 0 mm | - | 0 W/m² | - |
| 1778134731 | 17.78° C | 81% | 1011.2 hPa | 0 mm | - | 0 W/m² | - |
| 1778134429 | 17.78° C | 83% | 1011.2 hPa | 0 mm | - | 0 W/m² | - |
| 1778134127 | 17.78° C | 84% | 1010.8 hPa | 0 mm | - | 0 W/m² | - |
| 1778133823 | 17.78° C | 85% | 1011.3 hPa | 0 mm | - | 0 W/m² | - |
| 1778133520 | 17.78° C | 85% | 1011.3 hPa | 0 mm | - | 0 W/m² | - |
| 1778133215 | 17.78° C | 88% | 1011.4 hPa | 0 mm | - | 0 W/m² | - |
| 1778132912 | 17.22° C | 90% | 1011.4 hPa | 0 mm | - | 0 W/m² | - |
| 1778132608 | 17.78° C | 93% | 1011.5 hPa | 0 mm | - | 0 W/m² | - |
| 1778132306 | 17.78° C | 93% | 1011.6 hPa | 0 mm | - | 0 W/m² | - |
| 1778132003 | 17.78° C | 93% | 1011.5 hPa | 0 mm | - | 0 W/m² | - |
* Rain latest hour (hover to see other rain measurements)
** Current wind speed in m/s (hover to see current wind gust speed)